SCP
0 0 0 0 0 0 0 0 0 0 0 0 0 0 0 0 0 0 0 0 0 0 0 0 0 0 0 0 0 0 0 0 0 0 0 0 0 0 0 0 0 0 0 0 0 0 0 0 0
0 0 0 0 0 0 0 0 0 0 0 0 0 0 0 0 0 0 0 0 0 0 0 0 0 0 0 0 0 0 0 0 0 0 0 0 0 0 0 0 0 0 0 0 0 0 0 0 0
0 0 0 0 0 0 0 0 0 0 0 0 0 0 0 0 0 0 0 0 0 0 0 0 0 0 0 0 0 0 0 0 0 0 0 0 0 0 0 0 0 0 0 0 0 0 0 0 0
0 0 0 0 0 0 0 0 0 0 0 0 0 0 0 0 0 0 0 0 0 0 0 0 0 0 0 0 0 0 0 0 0 0 0 0 0 0 0 0 0 0 0 0 0 0 0 0 0
0 0 0 0 0 0 0 0 0 0 0 0 0 0 0 0 0 0 0 0 0 0 0 0 0 0 0 0 0 0 0 0 0 0 0 0 0 0 0 0 0 0 0 0 0 0 0 0 0
0 0 0 0 0 0 0 0 0 0 0 0 0 0 0 0 0 0 0 0 0 0 0 0 0 0 0 0 0 0 0 0 0 0 0 0 0 0 0 0 0 0 0 0 0 0 0 0 0
0 0 0 0 0 0 0 0 0 0 0 0 0 0 0 0 0 0 0 0 0 0 0 0 0 0 0 0 0 0 0 0 0 0 0 0 0 0 0 0 0 0 0 0 0 0 0 0 0
0 0 0 0 0 0 0 0 0 0 0 0 0 0 0 0 0 0 0 0 0 0 0 0 0 0 0 0 0 0 0 0 0 0 0 0 0 0 0 0 0 0 0 0 0 0 0 0 0
0 0 0 0 0 0 0 0 0 0 0 0 0 0 0 0 0 0 0 0 0 0 0 0 0 0 0 0 0 0 0 0 0 0 0 0 0 0 0 0 0 0 0 0 0 0 0 0 0
0 0 0 0 0 0 0 0 0 0 0 0 0 0 0 0 0 0 0 0 0 0 0 0 0 0 0 0 0 0 0 0 0 0 0 0 0 0 0 0 0 0 0 0 0 0 0 0 0
0 0 0 0 0 0 0 0 0 0 0 0 0 0 0 0 0 0 0 0 0 0 0 0 0 0 0 0 0 0 0 0 0 0 0 0 0 0 0 0 0 0 0 0 0 0 0 0 0
0 0 0 0 0 0 0 0 0 0 0 0 0 0 0 0 0 0 0 0 -0 0 0 0 0 0 0 0 0 0 0 0 0 0 0 0 0 0 0 0 0 0 0 0 0 0 0 0 0
0 0 0 0 0 0 0 0 0 0 0 0 0 0 0 0 0 0 0 0 0 0 0 0 0 0 0 0 0 0 0 0 0 0 0 0 0 0 0 0 0 0 0 0 0 0 0 0 0
0 0 0 0 0 0 0 0 0 0 0 0 0 0 0 0 0 0 0 0 0 0 0 0 0 0 0 0 0 0 0 0 0 0 0 0 0 0 0 0 0 0 0 0 0 0 0 0 0
0 0 0 0 0 0 0 0 0 0 0 0 0 0 0 0 0 0 0 0 0 0 0 0 0 0 0 0 0 0 0 0 0 0 0 0 0 0 0 0 0 0 0 0 0 0 0 0 0
0 0 0 0 0 0 0 0 0 0 0 0 0 0 0 0 0 0 0 0 0 0 0 0 0 0 0 0 0 0 0 0 0 0 0 0 0 0 0 0 0 0 0 0 0 0 0 0 0
0 0 0 0 0 0 0 0 0 0 0 0 0 0 0 0 0 0 0 0 0 0 0 0 0 0 0 0 0 0 0 0 0 0 0 0 0 0 0 0 0 0 0 0 0 0 0 0 0
0 0 0 0 0 0 0 0 0 0 0 0 0 0 0 0 0 0 0 0 0 0 0 0 0 0 0 0 0 0 0 0 0 0 0 0 0 0 0 0 0 0 0 0 0 0 0 0 0
0 0 0 0 0 0 0 0 0 0 0 0 0 0 0 0 0 0 0 0 0 0 0 0 0 0 0 0 0 0 0 0 0 0 0 0 0 0 0 0 0 0 0 0 0 0 0 0 0
0 0 0 0 0 0 0 0 0 0 0 0 0 0 0 0 0 0 0 0 0 0 0 0 0 0 0 0 0 0 0 0 0 0 0 0 0 0 0 0 0 0 0 0 0 0 0 0 0
0 0 0 0 0 0 0 0 0 0 0 0 0 0 0 0 0 0 0 0 0 0 0 0 0 0 0 0 0 0 0 0 0 0 0 0 0 0 0 0 0 0 0 0 0 0 0 0 0
0 0 0 0 0 0 0 0 0 0 0 0 0 0 0 0 0 0 0 0 0 0 0 0 0 0 0 0 0 0 0 0 0 0 0 0 0 0 0 0 0 0 0 0 0 0 0 0 0
0 0 0 0 0 0 0 0 0 0 0 0 0 0 0 0 0 0 0 0 0 0 0 0 0 0 0 0 0 0 0 0 0 0 0 0 0 0 0 0 0 0 0 0 0 0 0 0 0
0 0 0 0 0 0 0 0 0 0 0 0 0 0 0 0 0 0 0 0 0 0 0 0 0 0 0 0 0 0 0 0 0 0 0 0 0 0 0 0 0 0 0 0 0 0 0 0 0
0 0 0 0 0 0 0 0 0 0 0 0 0 0 0 0 0 0 0 0 0 0 0 0 0 0 0 0 0 0 0 0 0 0 0 0 0 0 0 0 0 0 0 0 0 0 0 0 0
0 0 0 0 0 0 0 0 0 0 0 0 0 0 0 0 0 0 0 0 0 0 0 0 0 0 0 0 0 0 0 0 0 0 0 0 0 0 0 0 0 0 0 0 0 0 0 0 0
0 0 0 0 0 0 0 0 0 0 0 0 0 0 0 0 0 0 0 0 0 0 0 0 0 0 0 0 0 0 0 0 0 0 0 0 0 0 0 0 0 0 0 0 0 0 0 0 0
0 0 0 0 0 0 0 0 0 0 0 0 0 0 0 0 0 0 0 0 0 0 0 0 0 0 0 0 0 0 0 0 0 0 0 0 0 0 0 0 0 0 0 0 0 0 0 0 0
0 0 0 0 0 0 0 0 0 0 0 0 0 0 0 0 0 0 0 0 0 0 0 0 0 0 0 0 0 0 0 0 0 0 0 0 0 0 0 0 0 0 0 0 0 0 0 0 0
0 0 0 0 0 0 0 0 0 0 0 0 0 0 0 0 0 0 0 0 0 0 0 0 0 0 0 0 0 0 0 0 0 0 0 0 0 0 0 0 0 0 0 0 0 0 0 0 0
Wind_Speed
7 8 5 2 2 2 2 3 5 5 7 7 8 11 14 13 10 9 3 7 12 13 13 11 11 11 10 10 9 9 9 9 8 7 7 7 6 6 6 6 6 6 6 6 5 5 6 5 5
7 6 3 2 2 1 4 4 7 7 6 4 9 13 14 13 13 10 5 7 12 13 12 12 11 11 10 10 10 10 9 9 8 7 7 6 6 5 5 5 5 6 6 5 5 4 5 5 5
8 6 3 2 2 2 5 5 6 7 4 6 10 13 10 9 11 8 7 9 12 14 13 11 11 11 10 10 10 10 9 9 8 8 7 6 6 6 6 5 5 5 5 5 4 4 4 4 4
4 3 3 2 2 6 6 4 5 7 5 6 10 11 11 11 10 10 10 11 13 14 13 11 11 11 10 10 10 9 9 8 8 8 7 7 6 6 5 5 5 5 6 5 4 4 4 4 4
3 3 3 1 3 6 5 5 5 7 7 10 14 13 11 13 13 12 9 10 12 13 13 12 12 11 10 10 9 9 8 8 8 7 6 6 5 5 4 5 5 5 6 6 5 5 4 4 5
2 3 2 1 4 5 5 5 6 8 7 10 13 13 9 11 10 9 10 8 11 12 12 12 12 12 11 10 9 8 7 6 6 5 4 3 3 2 2 3 4 5 6 6 5 5 5 5 5
2 3 2 1 4 4 5 5 6 5 7 8 10 11 9 10 8 8 8 8 8 8 11 11 10 10 11 10 9 7 5 4 3 2 1 2 3 3 2 0 2 4 5 5 5 5 5 5 5
3 3 3 2 4 4 4 5 7 6 7 6 7 9 9 10 8 8 7 7 6 6 7 7 8 9 9 8 9 7 6 4 3 3 4 6 7 7 7 3 1 2 3 4 5 5 5 6 6
4 2 2 2 3 3 3 5 5 5 7 9 11 12 15 13 10 7 6 6 5 6 5 5 6 6 7 8 9 9 8 6 5 6 8 7 4 2 5 4 4 2 4 5 6 7 7 7 8
3 0 0 2 3 3 3 4 4 4 7 10 13 15 15 12 10 8 7 7 6 5 5 5 5 4 4 3 6 3 4 4 3 1 1 2 2 2 2 3 4 5 7 7 8 9 9 7 5
3 1 1 3 4 2 2 2 3 5 4 8 12 14 13 11 9 7 6 5 5 5 4 4 4 4 4 3 2 1 1 1 1 2 1 1 2 2 1 0 2 4 5 3 3 6 4 3 2
3 1 2 4 3 1 1 2 4 6 6 8 12 14 12 10 8 7 6 7 6 6 5 4 3 4 5 5 1 1 1 1 2 3 4 2 2 2 2 2 2 2 1 1 2 3 3 3 3
4 2 2 2 2 0 1 2 3 5 8 11 12 12 11 10 8 6 7 7 7 6 5 5 3 4 5 3 1 2 3 2 3 2 2 2 2 2 3 2 1 2 2 2 2 3 3 3 4
3 3 3 3 3 2 2 3 3 5 8 10 11 10 10 9 9 7 7 7 8 6 6 5 4 3 3 2 2 3 2 2 2 2 3 3 2 2 2 3 2 2 2 2 3 3 3 2 2
4 4 4 4 4 2 1 2 4 7 7 8 10 9 10 9 8 8 7 7 7 7 7 5 4 3 4 5 4 3 2 4 3 2 4 4 3 3 3 3 3 3 3 3 3 4 3 3 2
6 6 4 5 5 4 2 0 2 6 8 7 8 8 7 8 9 8 7 6 6 6 8 7 4 4 5 4 3 3 4 4 3 3 4 6 6 5 3 3 3 3 3 3 3 2 3 3 3
7 7 7 6 7 6 5 3 4 5 7 5 7 8 9 8 8 8 8 6 6 6 7 7 5 4 5 4 2 2 3 2 2 3 4 5 6 6 4 2 2 4 3 3 4 3 3 3 3
10 8 7 8 8 7 6 5 5 6 6 5 6 7 7 9 8 7 7 7 6 5 5 7 7 5 5 2 1 3 3 2 2 3 4 3 3 4 4 3 4 4 3 3 3 3 3 2 2
8 8 7 7 9 8 5 5 4 3 4 5 5 6 7 8 7 8 7 7 6 5 4 5 7 5 4 2 1 2 2 1 2 2 3 2 2 4 3 3 3 3 3 3 4 3 4 3 2
5 7 8 8 9 8 8 7 5 4 3 3 4 5 6 8 8 6 7 7 6 5 4 5 6 5 5 2 1 2 2 1 2 1 1 1 3 4 5 4 3 2 2 3 4 3 3 3 3
6 7 9 9 9 8 8 7 6 7 6 5 4 5 5 7 8 7 6 6 6 5 3 3 5 6 5 4 2 2 2 1 0 0 1 1 1 2 3 4 3 3 3 2 3 3 4 3 3
4 7 9 11 10 7 8 5 6 8 7 6 5 5 6 5 6 6 6 6 5 5 3 3 5 5 5 4 3 1 1 0 0 0 1 1 1 1 1 2 3 3 2 3 3 3 3 3 3
4 7 9 9 7 6 8 6 6 8 7 7 6 6 6 6 6 6 5 5 4 4 3 3 5 5 5 4 4 1 0 0 1 1 0 1 1 1 1 1 2 2 2 2 3 3 3 2 2
6 8 6 4 3 4 7 6 5 5 8 8 8 7 6 6 6 6 6 5 5 5 4 3 4 4 4 3 3 3 2 1 1 1 1 1 1 1 1 0 1 2 1 2 2 2 2 1 1
8 6 4 3 2 4 8 6 6 7 8 9 9 8 7 5 6 6 6 4 4 4 3 3 3 3 3 3 3 3 3 3 2 1 1 1 1 0 1 1 1 1 2 2 2 2 2 1 1
8 6 2 3 4 5 6 7 9 8 8 9 9 9 8 7 6 6 5 4 4 4 2 1 2 2 2 3 3 3 3 2 1 0 1 2 1 1 1 0 1 0 1 2 1 2 2 1 1
6 4 3 2 4 4 7 11 10 9 9 9 9 8 8 7 6 6 5 4 4 4 2 1 1 1 2 2 2 2 2 1 1 1 2 1 1 1 0 1 1 1 1 1 2 2 2 2 2
4 3 5 3 4 4 10 12 10 12 10 9 9 8 7 7 7 6 5 5 4 4 2 2 1 1 0 1 2 2 2 1 1 1 2 2 2 1 1 2 3 2 3 3 2 1 1 2 1
7 6 4 4 5 2 5 5 10 11 11 10 9 9 7 7 6 5 4 4 4 4 3 2 2 1 1 1 1 2 1 1 1 2 2 2 3 3 3 3 3 3 2 2 2 2 2 2 2
6 7 6 3 2 0 4 5 9 10 10 11 10 9 8 7 6 5 5 5 4 4 3 3 2 2 1 1 2 2 1 1 2 3 3 3 4 3 3 3 3 3 3 2 2 3 2 2 3
Wind_Direction
263 252 247 249 249 230 78 77 79 55 61 52 51 68 67 54 59 90 130 107 109 110 110 100 94 92 89 87 84 80 75 72 70 67 64 59 53 48 43 39 34 31 28 28 28 26 20 20 20
275 272 269 240 259 116 86 80 80 72 75 79 71 74 75 71 82 98 107 101 107 104 101 96 94 90 86 84 81 79 76 72 69 65 59 55 49 41 34 29 24 20 18 16 18 16 11 7 8
264 259 267 253 285 77 92 87 96 92 87 86 79 66 60 78 90 102 118 112 102 99 97 96 94 89 86 83 80 78 74 71 67 62 57 53 46 39 34 27 19 10 4 2 1 359 357 350 350
262 265 251 255 33 86 105 115 110 97 79 76 84 74 64 68 96 117 129 118 108 105 104 102 98 93 88 83 80 79 75 69 65 61 55 50 44 38 31 21 12 3 356 350 346 337 330 327 327
259 262 262 249 92 87 91 101 93 88 82 80 86 89 83 84 104 121 121 111 110 111 113 113 107 100 94 88 83 78 74 69 64 57 49 41 36 32 24 15 7 360 354 351 345 334 319 310 310
281 266 282 31 95 102 99 80 81 87 88 92 102 101 96 105 109 116 114 111 111 115 118 122 122 117 108 100 91 83 76 71 65 53 38 23 11 5 3 8 8 2 355 349 338 329 314 298 297
265 285 284 62 101 79 83 84 83 83 86 76 98 105 115 116 116 110 103 100 105 119 128 136 142 136 126 119 111 103 95 88 83 67 347 300 280 267 263 310 18 2 351 343 336 323 313 300 287
273 289 309 40 89 79 69 81 82 83 79 76 81 112 126 127 123 112 115 116 117 113 118 133 144 144 148 143 141 145 151 164 187 218 251 264 265 248 238 219 136 335 325 320 316 310 298 289 276
277 283 342 46 88 98 94 94 89 94 93 80 69 96 123 132 130 127 130 123 119 117 127 130 130 136 152 156 155 172 181 197 211 221 240 261 267 230 215 149 155 240 276 279 281 282 281 276 263
233 251 318 87 87 109 110 102 120 114 106 100 97 106 124 138 144 151 150 143 141 142 136 129 126 133 125 107 142 179 173 180 205 172 213 279 341 328 346 134 202 236 255 263 260 269 273 264 247
234 205 87 77 69 74 97 96 110 108 106 119 126 131 140 148 154 154 145 133 129 119 103 105 116 120 116 105 102 90 115 148 115 44 17 351 349 335 357 175 203 237 249 266 268 253 254 249 246
232 161 105 89 69 58 74 84 89 97 110 113 127 138 147 155 155 157 143 130 121 106 96 71 57 94 82 72 61 181 88 53 61 29 13 25 5 333 5 338 27 331 334 348 321 298 302 320 305
219 182 122 117 123 140 118 109 109 113 122 124 132 142 151 153 156 154 135 129 121 122 120 95 59 59 83 95 277 72 80 36 67 53 345 24 9 352 5 337 11 350 356 349 332 315 335 336 325
189 179 182 180 174 192 174 166 161 133 139 140 141 148 153 152 160 153 144 144 136 139 124 116 102 86 95 111 62 62 61 129 63 54 344 20 27 1 11 359 1 9 349 343 331 327 340 320 316
182 192 190 192 195 184 199 185 167 150 152 152 150 151 153 159 162 155 149 147 135 132 118 109 103 89 69 59 39 60 30 51 47 47 2 18 30 11 30 9 357 356 344 347 349 341 335 322 321
196 204 196 188 197 175 142 240 174 164 160 159 151 149 157 160 163 156 146 138 128 130 122 121 107 94 82 73 48 34 52 43 30 40 24 13 15 12 32 14 347 345 352 355 337 350 342 336 336
200 204 190 174 195 175 156 172 193 179 153 158 158 155 161 166 164 152 145 135 126 118 121 127 113 101 93 94 121 67 66 65 34 48 49 18 360 358 22 359 332 352 2 357 344 8 343 332 334
194 196 181 172 180 180 161 162 171 162 155 166 164 158 164 162 159 146 138 130 118 115 123 120 113 106 102 89 91 88 69 38 56 55 59 25 346 359 4 342 9 7 359 351 353 357 338 321 308
197 186 175 166 172 172 145 144 142 148 154 159 151 153 166 158 148 140 136 133 130 128 133 129 129 125 113 98 75 78 72 35 69 66 73 350 352 358 355 360 360 0 353 357 359 352 341 330 334
217 176 171 162 170 158 143 139 131 141 126 115 122 139 147 137 132 138 142 146 142 143 166 147 130 127 122 115 99 117 98 45 82 41 123 35 27 12 0 7 352 2 357 9 354 352 350 337 350
187 174 168 160 163 146 130 123 142 128 102 85 71 89 99 121 134 142 141 130 132 142 167 139 126 126 119 123 83 60 63 341 54 213 102 69 50 32 2 348 347 348 9 16 351 1 357 339 333
156 167 182 173 163 155 146 130 148 129 112 101 83 76 90 101 110 117 121 127 140 141 146 134 123 120 120 121 110 117 127 3 29 35 120 183 164 115 31 334 342 346 6 6 358 22 348 351 341
170 181 191 178 169 165 161 142 143 134 120 105 95 85 80 84 91 97 104 117 115 115 109 93 110 117 123 129 137 166 238 317 19 19 52 307 138 140 157 355 329 333 357 4 9 13 354 353 353
174 187 180 190 193 184 180 150 135 126 123 116 108 95 86 87 89 85 84 91 93 93 92 85 101 114 126 144 161 184 205 233 246 259 287 297 252 207 149 135 314 327 2 9 3 350 335 338 337
198 189 164 176 199 191 176 132 116 114 113 111 109 101 90 84 91 92 88 90 95 99 105 117 130 140 147 170 207 200 202 232 238 239 203 256 288 240 156 85 301 344 14 349 346 323 303 301 326
207 214 193 182 188 183 164 119 120 123 113 110 107 105 100 88 84 89 95 95 97 100 103 120 134 161 175 191 222 233 210 213 230 172 274 241 248 261 144 170 291 351 344 324 336 323 318 338 343
204 198 248 270 249 194 133 116 130 139 130 118 109 103 97 93 92 90 92 96 103 108 114 122 129 174 194 209 232 254 261 228 248 253 269 283 270 259 187 232 246 222 219 300 325 304 326 343 348
272 233 211 213 218 178 146 153 157 156 144 130 118 106 96 92 89 89 87 84 86 92 97 104 104 118 141 218 242 246 252 251 229 270 280 296 296 289 263 258 251 224 207 218 222 282 306 312 289
201 223 231 219 239 194 152 124 143 148 140 131 118 109 100 91 87 91 89 85 84 89 85 80 85 67 41 343 287 292 272 265 246 241 258 264 270 261 242 239 262 264 234 218 191 225 263 283 292
223 222 231 243 248 209 113 103 121 128 125 121 114 108 102 98 91 85 82 80 73 73 75 55 64 71 47 4 339 315 308 282 273 254 242 252 264 273 270 252 246 262 263 245 208 219 235 251 271